Cloud_Cover
100 98 100 100 100 100 100 100 100 100 98 100 95 100 100 100 100 100 100 100 100 100 100 100 100 100 100 100 100 100 100 100 100 100 100 100 100 100 100 100 100 100 100
95 94 100 100 100 100 100 100 100 100 100 100 47 100 100 100 100 100 100 100 100 100 100 100 100 100 100 91 100 100 100 100 100 100 100 100 100 100 100 100 100 100 100
100 100 100 100 100 100 100 100 100 100 100 100 100 100 100 100 100 100 100 100 100 100 100 100 100 100 99 100 100 100 100 100 100 100 100 100 100 100 100 100 97 100 86
91 100 100 100 100 100 100 100 100 100 100 100 100 100 100 100 100 100 100 100 100 100 100 100 100 100 100 100 100 100 100 100 100 100 100 100 100 100 100 100 100 100 100
82 100 97 100 100 100 100 100 100 100 100 100 100 100 100 100 100 100 100 100 100 100 100 100 100 100 100 100 100 100 100 100 100 100 100 100 100 100 100 100 100 100 100
62 58 100 100 100 100 100 100 100 100 100 100 100 100 100 100 100 100 100 100 100 100 100 100 100 100 100 100 100 100 100 100 100 100 100 100 100 100 100 100 100 100 100
87 96 88 99 96 39 96 99 100 100 97 76 39 90 92 91 100 100 100 100 100 100 100 100 100 100 100 100 100 100 100 100 100 100 100 100 100 100 100 100 100 100 100
100 100 100 88 70 69 91 59 63 80 56 58 88 95 87 100 96 78 92 97 95 100 99 99 100 100 100 100 100 100 100 100 100 100 100 100 100 100 100 97 89 95 11
99 100 100 100 59 66 52 64 78 100 94 98 99 88 68 95 100 100 100 100 88 15 44 94 96 96 100 100 100 98 99 87 86 34 37 21 5 5 5 5 5 6 13
83 100 100 80 88 95 100 100 100 100 100 98 70 99 98 100 99 53 66 31 57 98 89 100 100 98 93 94 99 100 100 100 100 100 94 100 100 97 94 65 67 85 22
100 100 100 100 100 95 100 100 100 100 64 100 100 100 92 89 82 100 99 39 17 90 84 100 100 100 89 100 100 100 100 100 100 100 100 98 100 100 90 100 98 50 68
100 100 100 99 88 100 100 100 100 99 98 100 100 99 100 94 96 100 100 100 100 99 100 99 100 100 100 100 100 100 100 100 100 100 100 98 100 100 95 100 100 91 31
100 100 100 100 100 98 100 100 100 100 100 100 100 100 100 100 100 100 100 100 100 100 100 100 100 100 100 100 100 100 100 100 100 100 100 100 100 100 100 100 100 100 100
100 100 100 100 100 100 100 100 100 100 100 100 100 100 100 100 100 100 100 100 100 100 100 100 100 100 100 100 100 100 100 100 100 100 100 100 100 100 100 100 100 100 100
100 100 100 100 100 96 82 98 100 100 100 100 100 100 100 100 100 100 100 100 100 100 100 100 100 100 100 100 100 100 100 100 100 100 100 100 100 100 100 100 100 100 100
100 100 100 100 100 100 99 100 32 65 82 91 90 41 53 31 74 97 100 100 100 100 100 100 100 100 100 100 100 100 100 100 100 100 100 100 100 100 100 100 100 100 100
54 69 76 90 99 100 68 5 6 5 5 62 71 73 41 5 5 42 6 34 17 58 100 100 100 100 100 100 100 100 100 100 100 100 100 100 100 100 100 100 100 100 100
72 28 39 48 37 5 5 5 5 5 5 5 5 5 5 36 19 5 12 23 34 42 89 97 100 99 90 80 100 100 100 100 100 100 100 100 86 82 100 100 95 99 97
97 7 15 44 19 5 5 5 6 6 6 5 5 26 10 6 40 20 47 62 78 55 38 37 52 26 31 56 53 49 37 30 7 9 25 46 32 16 22 21 31 5 3
12 51 47 27 10 12 19 5 5 5 6 16 31 46 78 100 100 100 100 83 25 39 32 12 10 5 5 5 4 5 5 5 5 5 5 0 0 0 2 4 4 5 26
79 100 100 100 57 7 87 69 53 10 75 91 100 100 100 100 100 93 55 26 7 6 2 0 0 0 1 5 5 5 5 5 5 5 0 2 5 6 67 86 93 80 79
100 100 100 100 100 100 100 100 100 100 100 100 100 91 32 5 5 5 1 0 0 0 0 0 0 0 0 4 4 11 5 21 47 5 4 2 10 100 100 100 96 86 98
100 100 100 100 100 100 100 100 100 100 100 96 80 86 90 46 5 4 2 4 5 5 5 5 4 4 5 42 60 73 43 74 42 99 100 89 72 80 81 100 80 67 91
100 100 100 99 98 100 100 100 100 100 82 50 8 5 5 3 0 0 3 5 5 2 16 23 12 61 76 57 77 77 89 86 51 100 100 100 100 100 100 100 100 100 100
89 100 100 100 100 100 100 94 57 7 16 22 4 2 0 0 1 5 5 5 4 67 72 31 22 4 5 4 2 28 5 5 98 100 100 100 100 100 100 100 100 100 100
100 100 100 100 100 100 100 100 37 10 5 4 4 0 0 4 5 5 1 6 39 63 88 65 70 2 1 4 2 9 5 26 100 100 100 100 100 100 100 100 100 100 100